ZF1RC George Town KY current weather conditions

sailwx.info

Wind from 017

Air temperature 29.4° C
Dewpoint 21.1° C

Last reported at 2018-Feb-25 21:00 UTC.
Time now 2018-Feb-25 21:57 UTC

Location: N 19°16' W 081°23'.
View on Google Maps.

See reports from other nearby stations

  
Tides and Currents Weather Stations Pressure Air Temp Water Temp Dewpoint Dewpoint Depression Visibility Wind Speed Wind Dir Waves Ship Positions
date/time (UTC)wind fromknots sea level pressurealtimeterstation pressurevisibilityair tempwater tempwave heightnotes
2018-Feb-25 21:00 017 29.4
2018-Feb-25 20:30 166 1 gusting 4 30.0
2018-Feb-25 20:00 228 30.0
2018-Feb-25 19:30 189 0 gusting 2 29.4
2018-Feb-25 19:00 268 0 gusting 1 30.0
2018-Feb-25 18:30 105 29.4
2018-Feb-25 18:00 259 0 gusting 1 30.0
2018-Feb-25 17:30 135 0 gusting 6 30.0
2018-Feb-25 17:00 178 0 gusting 1 30.6
2018-Feb-25 16:30 317 0 gusting 1 30.0
2018-Feb-25 16:00 145 0 gusting 5 30.0
2018-Feb-25 15:30 064 29.4
2018-Feb-25 15:00 154 29.4
2018-Feb-25 14:30 141 28.3
2018-Feb-25 14:00 135 0 gusting 0 27.2
2018-Feb-25 13:30 148 26.1
2018-Feb-25 13:00 074 2 gusting 2 24.4
2018-Feb-25 12:30 100 2 gusting 2 23.3
2018-Feb-25 12:00 082 1 gusting 2 23.3
2018-Feb-25 11:30 096 0 gusting 2 23.3
2018-Feb-25 11:00 065 1 gusting 2 22.8
2018-Feb-25 10:30 089 0 gusting 1 22.8
2018-Feb-25 10:00 097 0 gusting 1 22.8
2018-Feb-25 09:30 106 1 gusting 2 22.2
2018-Feb-25 09:00 103 0 gusting 1 22.8
2018-Feb-25 08:30 096 0 gusting 1 22.8
2018-Feb-25 08:00 059 0 gusting 1 22.8
2018-Feb-25 07:30 049 0 gusting 1 22.2
2018-Feb-25 07:00 103 0 gusting 1 22.2
2018-Feb-25 06:30 068 0 gusting 0 22.2
2018-Feb-25 06:00 050 0 gusting 0 22.2
2018-Feb-25 05:30 061 0 gusting 1 22.8
2018-Feb-25 05:00 074 0 gusting 1 22.8
2018-Feb-25 04:30 049 0 gusting 2 22.8
2018-Feb-25 03:30 074 0 gusting 1 23.3
2018-Feb-25 03:00 085 0 gusting 1 23.3
2018-Feb-25 02:30 070 0 gusting 1 23.3
2018-Feb-25 02:00 073 0 gusting 2 23.9
2018-Feb-25 01:30 090 0 gusting 2 23.9
2018-Feb-25 01:00 063 1 gusting 1 23.9
2018-Feb-25 00:30 075 0 gusting 2 24.4
2018-Feb-25 00:00 145 1 gusting 2 25.0
2018-Feb-24 23:30 067 2 gusting 6 25.0
2018-Feb-24 23:00 076 1 gusting 5 26.1
2018-Feb-24 22:30 081 2 gusting 6 26.1
2018-Feb-24 22:00 133 1 gusting 6 26.7
2018-Feb-24 21:30 123 2 gusting 6 26.7
2018-Feb-24 21:00 086 4 gusting 5 27.8
2018-Feb-24 20:30 079 2 gusting 6 26.7
2018-Feb-24 20:00 106 2 gusting 11 26.7
2018-Feb-24 19:30 104 4 gusting 7 27.8
2018-Feb-24 19:00 106 2 gusting 5 29.4
2018-Feb-24 18:30 298 29.4
2018-Feb-24 18:00 104 2 gusting 5 27.8
2018-Feb-24 17:30 132 1 gusting 4 25.6
2018-Feb-24 17:00 025 2 gusting 7 23.3
2018-Feb-24 16:30 090 2 gusting 6 25.6
2018-Feb-24 16:00 042 5 gusting 6 28.3
2018-Feb-24 15:30 048 2 gusting 6 26.1
2018-Feb-24 15:00 100 5 gusting 10 26.1
2018-Feb-24 14:30 089 5 gusting 7 27.2
2018-Feb-24 14:00 069 25.6
2018-Feb-24 13:30 019 2 gusting 5 24.4
2018-Feb-24 13:00 052 0 gusting 2 23.9
2018-Feb-24 12:30 106 1 gusting 4 23.3
2018-Feb-24 12:00 102 2 gusting 5 23.3
2018-Feb-24 11:30 108 0 gusting 2 23.3
2018-Feb-24 11:00 099 0 gusting 4 23.3
2018-Feb-24 10:30 079 2 gusting 4 23.3
2018-Feb-24 10:00 047 0 gusting 2 22.8
2018-Feb-24 09:30 084 1 gusting 4 23.3
2018-Feb-24 09:00 057 2 gusting 6 23.9
2018-Feb-24 08:30 038 1 gusting 2 23.3
2018-Feb-24 08:00 086 1 gusting 4 23.9
2018-Feb-24 07:30 133 1 gusting 4 23.3
2018-Feb-24 07:00 042 0 gusting 1 23.3
2018-Feb-24 06:30 066 0 gusting 2 23.3
2018-Feb-24 06:00 086 1 gusting 2 23.3
2018-Feb-24 05:30 118 1 gusting 5 23.9
2018-Feb-24 05:00 010 1 gusting 4 23.9
2018-Feb-24 04:30 23.9
2018-Feb-24 04:00 101 2 gusting 5 23.9
2018-Feb-24 03:30 113 2 gusting 4 23.9
2018-Feb-24 03:00 075 0 gusting 4 24.4
2018-Feb-24 02:30 016 1 gusting 4 24.4
2018-Feb-24 02:00 112 2 gusting 6 24.4
2018-Feb-24 01:30 094 2 gusting 5 25.0
2018-Feb-24 01:00 094 3 gusting 5 25.0
2018-Feb-24 00:30 084 1 gusting 6 25.0
2018-Feb-24 00:00 102 2 gusting 6 25.6
2018-Feb-23 23:30 101 2 gusting 6 25.6
2018-Feb-23 23:00 084 6 gusting 7 26.7
2018-Feb-23 22:30 042 4 gusting 6 27.2
2018-Feb-23 22:00 096 5 gusting 8 27.8
2018-Feb-23 21:30 093 3 gusting 8 27.8
2018-Feb-23 21:00 085 5 gusting 10 27.2